Memphis, TN

1:29 PM CST on February 25, 2017 (GMT -0600)
Memphis International

Weather History for KMEM - May, 2013

Change the Weather History Date:

Monday, May 6, 2013

  Actual Average Record
Temperature  
Mean Temperature 60 °F 69 °F  
Max Temperature 66 °F 79 °F 95 °F (1952)
Min Temperature 54 °F 59 °F 41 °F (1944)
Degree Days  
Heating Degree Days 5 1  
Month to date heating degree days 48 7  
Since 1 July heating degree days 2924 2952  
Cooling Degree Days 0 5  
Month to date cooling degree days 9 27  
Year to date cooling degree days 85 122  
Growing Degree Days 10 (Base 50)    
Moisture  
Dew Point 53 °F    
Average Humidity 84    
Maximum Humidity 100    
Minimum Humidity 67    
Precipitation  
Precipitation 0.03 in 0.19 in 3.07 in (1907)
Month to date precipitation 4.46 1.13  
Year to date precipitation 28.29 20.16  
Snow  
Snow 0.00 in 0.00 in - ()
Month to date snowfall 0.0 0.0  
Since 1 July snowfall 0.9 3.8  
Snow Depth 0.00 in    
Sea Level Pressure  
Sea Level Pressure 29.91 in    
Wind  
Wind Speed 8 mph (NW)    
Max Wind Speed 17 mph    
Max Gust Speed 22 mph    
Visibility 10 miles    
Events Rain    
T = Trace of Precipitation, MM = Missing Value Source: NWS Daily Summary

Daily Weather History Graph

Daily Weather History Graph

Search for Another Location

Airport or City:

Trip Planner

Search our weather history database for the weather conditions in past years. The results will help you decide how hot, cold, wet, or windy it might be!

Date:

Astronomy

May. 06, 2013 Rise Set
Actual Time 6:03 AM CDT 7:49 PM CDT
Civil Twilight 5:36 AM CDT 8:17 PM CDT
Nautical Twilight 5:03 AM CDT 8:50 PM CDT
Astronomical Twilight 4:28 AM CDT 9:25 PM CDT
Moon 3:58 AM CDT (5/6) 4:56 PM CDT (5/6)
Length of Visible Light 14h 40m
Length of Day
13h 46m
Waning Crescent, 11% of the Moon is Illuminated
May 6
Waning Crescent
May 9
New
May 17
First Quarter
May 24
Full
May 31
Last Quarter

Hourly Weather History & Observations

Time (CDT) Temp. Dew Point Humidity Pressure Visibility Wind Dir Wind Speed Gust Speed Precip Events Conditions
12:54 AM 54.0 °F 50.0 °F 86% 29.89 in 10.0 mi WNW 11.5 mph - N/A   Overcast
1:54 AM 54.0 °F 50.0 °F 86% 29.88 in 10.0 mi WNW 10.4 mph - N/A   Overcast
2:54 AM 55.0 °F 51.1 °F 86% 29.87 in 10.0 mi WNW 5.8 mph - N/A   Overcast
3:54 AM 55.0 °F 51.1 °F 86% 29.87 in 10.0 mi WNW 4.6 mph - N/A   Overcast
4:54 AM 55.0 °F 51.1 °F 86% 29.88 in 10.0 mi WNW 5.8 mph - N/A   Overcast
5:18 AM 55.4 °F 51.8 °F 88% 29.88 in 10.0 mi NW 4.6 mph - N/A   Overcast
5:25 AM 55.4 °F 51.8 °F 88% 29.88 in 10.0 mi NW 3.5 mph - N/A   Overcast
5:54 AM 55.0 °F 52.0 °F 89% 29.88 in 10.0 mi NW 5.8 mph - N/A   Overcast
6:30 AM 55.4 °F 51.8 °F 88% 29.88 in 10.0 mi West 3.5 mph - N/A   Overcast
6:36 AM 55.4 °F 51.8 °F 88% 29.89 in 10.0 mi West 3.5 mph - N/A   Overcast
6:43 AM 55.4 °F 51.8 °F 88% 29.89 in 10.0 mi West 6.9 mph - N/A   Overcast
6:54 AM 55.0 °F 52.0 °F 89% 29.89 in 10.0 mi WNW 8.1 mph - N/A   Overcast
7:54 AM 55.9 °F 52.0 °F 87% 29.90 in 10.0 mi NW 10.4 mph - N/A   Overcast
8:54 AM 55.9 °F 54.0 °F 93% 29.91 in 2.5 mi NW 6.9 mph - 0.00 in Rain Light Rain
9:19 AM 57.2 °F 55.4 °F 94% 29.91 in 5.0 mi NNW 5.8 mph - 0.02 in Rain Light Rain
9:45 AM 57.2 °F 53.6 °F 88% 29.91 in 10.0 mi NW 8.1 mph - 0.02 in   Overcast
9:54 AM 57.9 °F 54.0 °F 87% 29.91 in 10.0 mi NNW 6.9 mph - 0.02 in   Overcast
10:04 AM 57.2 °F 53.6 °F 88% 29.91 in 10.0 mi NW 6.9 mph - N/A   Overcast
10:54 AM 59.0 °F 55.0 °F 87% 29.92 in 10.0 mi NNW 6.9 mph - 0.00 in   Overcast
11:04 AM 62.6 °F 57.2 °F 82% 29.92 in 10.0 mi North 10.4 mph - N/A   Overcast
11:15 AM 60.8 °F 53.6 °F 77% 29.92 in 10.0 mi NNW 12.7 mph 18.4 mph N/A   Overcast
11:26 AM 62.6 °F 55.4 °F 77% 29.92 in 10.0 mi NNW 10.4 mph 17.3 mph N/A   Overcast
11:54 AM 59.0 °F 53.1 °F 81% 29.92 in 10.0 mi NNW 10.4 mph 18.4 mph N/A   Overcast
12:38 PM 60.8 °F 53.6 °F 77% 29.91 in 10.0 mi NW 11.5 mph 19.6 mph 0.00 in   Overcast
12:45 PM 60.8 °F 53.6 °F 77% 29.91 in 10.0 mi NNW 16.1 mph 21.9 mph 0.00 in   Overcast
12:54 PM 61.0 °F 52.0 °F 72% 29.91 in 10.0 mi NW 17.3 mph 21.9 mph 0.00 in   Overcast
1:17 PM 62.6 °F 53.6 °F 72% 29.92 in 10.0 mi NNW 8.1 mph - N/A   Overcast
1:35 PM 64.4 °F 51.8 °F 64% 29.92 in 10.0 mi North 10.4 mph - N/A   Overcast
1:50 PM 62.6 °F 51.8 °F 68% 29.92 in 10.0 mi NNW 12.7 mph - N/A   Overcast
1:54 PM 61.0 °F 51.1 °F 70% 29.92 in 10.0 mi NNW 13.8 mph - N/A   Overcast
2:54 PM 63.0 °F 53.1 °F 70% 29.92 in 10.0 mi North 11.5 mph - N/A   Overcast
3:54 PM 64.0 °F 54.0 °F 70% 29.90 in 10.0 mi NNW 11.5 mph 18.4 mph N/A   Overcast
4:54 PM 64.0 °F 53.1 °F 67% 29.90 in 10.0 mi NW 9.2 mph - N/A   Overcast
5:33 PM 64.4 °F 53.6 °F 68% 29.92 in 10.0 mi NW 4.6 mph - N/A   Overcast
5:54 PM 62.1 °F 54.0 °F 75% 29.92 in 10.0 mi NNW 4.6 mph - 0.00 in Rain Light Rain
6:54 PM 61.0 °F 55.9 °F 83% 29.92 in 10.0 mi West 4.6 mph - 0.01 in   Overcast
7:54 PM 60.1 °F 55.9 °F 86% 29.94 in 10.0 mi West 5.8 mph - N/A   Overcast
8:54 PM 59.0 °F 55.9 °F 90% 29.95 in 10.0 mi West 5.8 mph - N/A   Mostly Cloudy
9:54 PM 57.0 °F 55.0 °F 93% 29.96 in 10.0 mi West 4.6 mph - N/A   Scattered Clouds
10:54 PM 57.0 °F 55.0 °F 93% 29.96 in 8.0 mi West 3.5 mph - N/A   Scattered Clouds
11:54 PM 55.9 °F 55.0 °F 97% 29.97 in 9.0 mi West 5.8 mph - N/A   Mostly Cloudy